Regional Weather Roundup
Issued by NWS Cleveland, OH

Home | Current Version | Previous Version | Graphics & Text | Print | Product List | Glossary On
Versions: 1 2 3 4 5 6 7 8 9 10 11 12 13 14 15 16 17 18 19 20 21 22 23 24 25 26 27 28 29 30 31 32 33 34 35 36 37 38 39 40 41 42 43 44 45 46 47 48 49 50
000
ASUS41 KCLE 221010
RWRCLE
OHIO REGIONAL WEATHER ROUNDUP
NATIONAL WEATHER SERVICE WILMINGTON, OH
600 AM EDT SUN APR 22 2018

NOTE: "FAIR" INDICATES FEW OR NO CLOUDS BELOW 12,000 FEET WITH NO
SIGNIFICANT WEATHER AND/OR OBSTRUCTIONS TO VISIBILITY.

OHZ001>008-015>018-024>027-034-035-043-044-221100-
   NORTHWEST OHIO

CITY           SKY/WX    TMP DP  RH WIND       PRES   REMARKS
DEFIANCE       CLOUDY    41  20  43 NE3       30.37R
FINDLAY        FAIR      42  22  44 NE6       30.35R
TOLEDO EXPRESS FAIR      38  24  57 CALM      30.37R
TOLEDO EXEC    FAIR      39  32  76 NE6       30.38S
LIMA           FAIR      39  27  62 NE7       30.34R
$$

OHZ009>014-019>023-028>033-038-089-221100-
   NORTHEAST OHIO

CITY           SKY/WX    TMP DP  RH WIND       PRES   REMARKS
CLE-HOPKINS    FAIR      38  34  85 N3        30.39R
CLE-LAKEFRONT  FAIR      38  27  64 CALM      30.37R
CUY CO. ARPT   NOT AVBL
LORAIN-ELYRIA  FAIR      34  29  82 NE9       30.37R WCI  27
ASHTABULA      FAIR      30  26  85 CALM      30.39R
AKRON-CANTON   CLOUDY    41  24  51 NE8       30.33S
WOOSTER        FAIR      40  28  62 CALM      30.34S
MANSFIELD      FAIR      39  25  57 NE7       30.33S
YOUNGSTOWN     FAIR      36  22  56 E8        30.35R
$$

OHZ042-051>053-060>062-070>072-077>081-221100-
  SOUTHWEST OHIO

CITY           SKY/WX    TMP DP  RH WIND       PRES   REMARKS
CINC-COVINGTON MOCLDY    49  26  41 E8        30.26S
CINC-LUNKEN    FAIR      45  38  76 NE3       30.29R
HAMILTON       FAIR      47  29  49 CALM      30.30R
DAYTON         CLOUDY    43  28  55 NE9       30.30F
WRIGHT-PAT AFB CLOUDY    44  27  50 NE8       30.29F
DAYTON GENERAL FAIR      45  27  49 NE10      30.27F
WILMINGTON     FAIR      43  31  62 NE10      30.27F
$$

OHZ036-037-039>041-045>050-054>059-063>069-073>076-082>088-221100-
  CENTRAL AND SOUTHEAST OHIO

CITY           SKY/WX    TMP DP  RH WIND       PRES   REMARKS
COLUMBUS       MOCLDY    46  29  51 NE5       30.30S
OSU AIRPORT    FAIR      41  30  65 NE6       30.31S
BOLTON FIELD   FAIR      43  30  61 NE5       30.31S
RICKENBACK AFB FAIR      43  30  60 NE5       30.30S
NEWARK         FAIR      43  30  60 CALM      30.31S
MARION         FAIR      38  29  70 NE6       30.34R
LANCASTER      MOCLDY    43  33  68 NE3       30.31S
ZANESVILLE     FAIR      44  29  55 CALM      30.31S
NEW PHILLY     FAIR      42  31  64 CALM      30.33S
$$




USA.gov is the U.S. government's official web portal to all federal, state and local government web resources and services.